Regional Weather Roundup
Issued by NWS

Home | Current Version | Previous Version | Text Only | Print | Product List | Glossary On
Versions: 1 2 3 4 5 6 7 8 9 10 11 12 13 14 15 16 17 18 19 20 21 22 23 24 25 26 27 28 29 30 31 32 33 34 35 36 37 38 39 40 41 42 43 44 45 46 47 48 49 50
306
ASUS44 KMEG 250610
RWRTN
TENNESSEE HOURLY STATE WEATHER ROUNDUP
NATIONAL WEATHER SERVICE MEMPHIS TN
100 AM CDT THU MAY 25 2017

TNZ002-004-019-021-049-052-054-088>092-250700-
WEST TENNESSEE

CITY           SKY/WX    TMP DP  RH WIND       PRES   REMARKS
MEMPHIS INTL   CLEAR     57  51  80 W8        29.69R
NWS MEMPHIS      N/A     53 N/A N/A MISG        N/A
JACKSON        CLEAR     54  51  90 W9        29.65R
DYERSBURG        N/A    N/A N/A N/A MISG        N/A
COVINGTON      CLEAR     55  52  88 W6        29.66F
UNION CITY     MOCLDY    55  52  88 W5        29.62S
BOLIVAR        CLEAR     52  50  93 SW5       29.66S
PARIS          CLOUDY    54  52  94 SW7       29.60S
HUNTINGDON     CLOUDY    54  52  94 W5        29.62S
LEXINGTON      CLEAR     55  50  82 MISG      29.63S
SELMER         PTCLDY    54  52  94 W6        29.64F
SAVANNAH       MOCLDY    55  54  94 CALM      29.64S
$$

TNZ008-025-027-028-033-062-065-066-250700-
NORTH MIDDLE TENNESSEE

CITY           SKY/WX    TMP DP  RH WIND       PRES   REMARKS
NASHVILLE      CLOUDY    57  54  89 SW3       29.60F
PORTLAND       CLEAR     55  52  88 SW7       29.57S
CLARKSVILLE    PTCLDY    54  52  93 SW6       29.59R
SMYRNA         LGT RAIN  56  54  93 W3        29.62R
COOKEVILLE     CLOUDY    52  50  93 SW3       29.58S
GALLATIN       CLOUDY    57  54  88 W6G12     29.61S
CROSSVILLE     PTCLDY    49  47  93 SW5       29.60F
$$

TNZ061-075-076-078-094-096-097-250700-
SOUTH MIDDLE TENNESSEE

CITY           SKY/WX    TMP DP  RH WIND       PRES   REMARKS
FAYETTEVILLE   CLOUDY    55  55 100 W8        29.62F
TULLAHOMA      MOCLDY    54  52  94 SW3       29.63S
WINCHESTER     CLOUDY    54  54 100 W3          N/A
COLUMBIA       MOCLDY    55  52  88 W5        29.60S
SHELBYVILLE    CLOUDY    55  54  94 SW6       29.61S
$$

TNZ017-018-042-046-047-250700-
NORTHEAST TENNESSEE

CITY           SKY/WX    TMP DP  RH WIND       PRES   REMARKS
TRI CITIES     MOCLDY    56  54  93 SW6       29.56R
ELIZABETHTON   CLOUDY    59  54  82 W7        29.56R
$$

TNZ012-013-036-069-073-074-250700-
CENTRAL EAST TENNESSEE

CITY           SKY/WX    TMP DP  RH WIND       PRES   REMARKS
KNOXVILLE      CLEAR     53  49  86 SW8       29.58S
OAK RIDGE      CLEAR     53  48  83 CALM      29.59S
DOWNTOWN KNOXV CLEAR     54  50  87 W3        29.59R
GATLINBURG     CLEAR     55  46  71 CALM      29.58S
MORRISTOWN     CLEAR     55  50  82 W8        29.56F
JACKSBORO      CLEAR     50  48  93 CALM      29.60S
$$

TNZ083-085-099-250700-
SOUTHEAST TENNESSEE

CITY           SKY/WX    TMP DP  RH WIND       PRES   REMARKS
CHATTANOOGA    LGT RAIN  58  55  90 CALM      29.62R
$$

SKY/WX REPORTED AS FAIR MEANS FEW OR NO CLOUDS BELOW
12 THOUSAND FEET.





USA.gov is the U.S. government's official web portal to all federal, state and local government web resources and services.